Regional Weather Roundup
Issued by NWS Albany, NY

Home | Current Version | Previous Version | Graphics & Text | Print | Product List | Glossary Off
Versions: 1 2 3 4 5 6 7 8 9 10 11 12 13 14 15 16 17 18 19 20 21 22 23 24 25 26 27 28 29 30 31 32 33 34 35 36 37 38 39 40 41 42 43 44 45 46 47 48 49 50

000
ASUS41 KALY 270810
RWRALY

NEW YORK STATE HOURLY WEATHER ROUNDUP
NATIONAL WEATHER SERVICE ALBANY NY
300 AM EST TUE JAN 27 2015

NOTE: "FAIR" INDICATES FEW OR NO CLOUDS BELOW 12,000 FEET WITH NO
SIGNIFICANT WEATHER AND/OR NO OBSTRUCTIONS TO VISIBILITY.

NYZ032-033-038>043-046>054-057>066-NYZ062>081-270900-
EAST


CITY           SKY/WX    TMP DP  RH WIND       PRES   REMARKS
ALBANY         CLOUDY    17   1  49 N12       29.86R WCI   4
GLENS FALLS    CLOUDY    14   2  58 N8        29.87F WCI   3
POUGHKEEPSIE   LGT SNOW  18  13  80 N14       29.77S VSB 3/4 WCI   4
NEWBURGH       LGT SNOW  18  16  93 N14G24    29.75R VSB 1   WCI   4
MONTGOMERY     LGT SNOW  20  15  81 NE18G26   29.73S WCI   5
WHITE PLAINS   LGT SNOW  20  17  88 N13       29.64F VSB 3/4 WCI   7
ISLIP          HVY SNOW  21  17  84 N23G49    29.58F VSB 1/8 WCI   5
NEW YORK CITY  SNOW      22  20  92 N16G22    29.67F VSB 1/2 WCI   8
CENTRAL PARK   LGT SNOW  22  17  81 NE8G18    29.69S VSB 3/4 WCI  12
$$

NYZ005>009-017-018-044>046-055-056-270900-
CENTRAL


CITY           SKY/WX    TMP DP  RH WIND       PRES   REMARKS
FULTON         CLOUDY    13   5  70 N9        29.93R WCI   1
SYRACUSE       CLOUDY    14   8  77 SE3       29.90R
ROME           CLOUDY    14   2  58 N5        29.90F WCI   6
ELMIRA         LGT SNOW  18  14  84 NE6       29.84R FOG     WCI  10
BINGHAMTON     CLOUDY    15  10  80 N9        29.74F WCI   3
MONTICELLO     CLOUDY    19  14  79 NW8       29.68S WCI   9
$$

NYZ026>034-041>043-270900-
NORTH


CITY           SKY/WX    TMP DP  RH WIND       PRES   REMARKS
WATERTOWN      PTCLDY     5  -6  60 NE13      30.00R WCI -12
FORT DRUM      NOT AVBL
MASSENA        PTCLDY     3  -6  66 NE13      30.09S WCI -14
SARANAC LAKE   PTCLDY     3  -4  72 NE6       29.83F WCI  -8
PLATTSBURGH    CLOUDY     5  -5  63 N12       30.02F WCI -11
$$

NYZ001>004-010>016-019>021-270900-
WEST


CITY           SKY/WX    TMP DP  RH WIND       PRES   REMARKS
NIAGARA FALLS  CLOUDY    16  12  84 NE10      29.94R WCI   4
BUFFALO        LGT SNOW  16  11  80 N9        29.91R WCI   4
DUNKIRK        FLURRIES  16  12  84 NE7       29.91R WCI   6
JAMESTOWN      CLOUDY    12   9  85 N7        29.79R WCI   2
WELLSVILLE     CLOUDY    11   8  88 NW3       29.75S
ROCHESTER      LGT SNOW  19  15  84 NE17G26   29.92R FOG     WCI   4
PENN YAN       FLURRIES  15  11  83 N7        29.87R WCI   5
$$

             KEY
       WCI = WIND CHILL INDEX
       VSB = VISIBILITY
       HX  = HEAT INDEX
$$



USA.gov is the U.S. government's official web portal to all federal, state and local government web resources and services.